Le nostre stazioni meteo in Italia

Pubblicità
Il mio iltempo24.it
Milano/Linate, Italia (16080): Temperatura & dewpoint: 08.07.2020 14:00:00 - 14.07.2020 14:00:00 (CEST)Milano/Linate, Italia (16080): velocità del vento: 08.07.2020 14:00:00 - 14.07.2020 14:00:00 (CEST)Milano/Linate, Italia (16080): direzione del vento: 08.07.2020 14:00:00 - 14.07.2020 14:00:00 (CEST)Milano/Linate, Italia (16080): reduced air pressure: 08.07.2020 14:00:00 - 14.07.2020 14:00:00 (CEST)Milano/Linate, Italia (16080): visibility: 08.07.2020 14:00:00 - 14.07.2020 14:00:00 (CEST)Milano/Linate, Italia (16080): precipitazioni: 08.07.2020 14:00:00 - 14.07.2020 14:00:00 (CEST)
Data & Tempo tt [°C] td [°C] ff [km/h] ff [kn] dd ppp [hPa] vv [km] rr [mm]
14.07.2020 14:00:00 25,0 12,0 16 9 E - 10 -
14.07.2020 13:00:00 25,0 12,0 13 7 E - 10 -
14.07.2020 12:00:00 24,0 11,0 15 8 ESE - 10 -
14.07.2020 11:00:00 23,4 10,8 22 12 SE 1017,1 10 0,0
14.07.2020 10:00:00 23,0 13,0 9 5 E - 10 -
14.07.2020 09:00:00 21,0 14,0 9 5 ENE - 10 -
14.07.2020 08:00:00 20,8 13,9 8 4 NE 1017,2 10 -
14.07.2020 07:00:00 21,0 13,0 8 4 ENE - 10 -
14.07.2020 06:00:00 21,0 13,0 8 4 NE - 10 -
14.07.2020 05:00:00 20,8 12,3 8 4 ENE 1017,1 10 0,0
14.07.2020 04:00:00 21,0 12,0 11 6 E - 10 -
14.07.2020 03:00:00 21,0 12,0 8 4 ENE - 10 -
14.07.2020 02:00:00 20,5 12,8 8 4 NE 1017,6 10 -
14.07.2020 01:00:00 22,0 11,0 9 5 ESE - 10 -
14.07.2020 00:00:00 22,0 12,0 11 6 ESE - 10 -
13.07.2020 23:00:00 22,9 12,3 9 5 ESE 1017,7 10 0,0
13.07.2020 22:00:00 24,0 12,0 8 4 ESE - 10 -
13.07.2020 21:00:00 24,0 12,0 9 5 SE - 10 -
13.07.2020 20:00:00 25,0 11,7 11 6 SSE 1016,9 10 -
13.07.2020 19:00:00 26,0 12,0 11 6 SSE - 10 -
13.07.2020 18:00:00 26,0 12,0 13 7 S - 10 -
13.07.2020 17:00:00 26,1 12,0 5 3 SE 1018,3 10 0,0
13.07.2020 16:00:00 26,0 13,0 13 7 SE - 10 -
13.07.2020 15:00:00 25,0 13,0 8 4 - - 10 -
13.07.2020 14:00:00 25,3 13,7 13 7 E 1020,0 10 -
13.07.2020 13:00:00 25,0 13,0 15 8 E - 10 -
13.07.2020 12:00:00 24,0 13,0 15 8 E - 10 -
13.07.2020 11:00:00 22,8 12,2 18 10 E 1021,8 10 0,0
13.07.2020 10:00:00 21,0 12,0 13 7 E - 10 -
13.07.2020 09:00:00 21,0 12,0 13 7 E - 10 -
13.07.2020 08:00:00 20,8 11,2 9 5 E 1021,8 10 -
13.07.2020 07:00:00 20,0 12,0 13 7 ESE - 10 -
13.07.2020 06:00:00 21,0 13,0 9 5 E - 10 -
13.07.2020 05:00:00 20,4 12,4 5 3 ENE 1021,3 10 0,0
13.07.2020 04:00:00 21,0 12,0 9 5 E - 10 -
13.07.2020 03:00:00 21,0 13,0 9 5 ENE - 10 -
13.07.2020 02:00:00 21,8 13,0 8 4 ENE 1021,9 10 -
13.07.2020 01:00:00 23,0 13,0 13 7 E - 10 -
13.07.2020 00:00:00 23,0 13,0 15 8 ESE - 10 -
12.07.2020 23:00:00 23,3 14,3 11 6 ESE 1021,3 10 0,0
12.07.2020 22:00:00 25,0 14,0 11 6 E - 10 -
12.07.2020 21:00:00 26,0 15,0 13 7 E - 10 -
12.07.2020 20:00:00 26,5 14,8 15 8 ESE 1019,7 10 -
12.07.2020 19:00:00 27,0 14,0 15 8 ESE - 10 -
12.07.2020 18:00:00 28,0 14,0 13 7 SE - 10 -
12.07.2020 17:00:00 28,0 14,0 13 7 ESE - 10 -
12.07.2020 16:00:00 27,0 13,0 13 7 SE - 10 -
12.07.2020 15:00:00 27,0 14,0 13 7 ESE - 10 -
12.07.2020 14:00:00 26,7 15,3 15 8 SE 1021,3 10 -
12.07.2020 13:00:00 26,0 14,0 13 7 SE - 10 -
12.07.2020 12:00:00 25,0 15,0 15 8 SE - 10 -
12.07.2020 11:00:00 24,7 15,5 13 7 SE 1021,6 10 0,0
12.07.2020 10:00:00 24,0 17,0 11 6 E - 10 -
12.07.2020 09:00:00 21,0 17,0 9 5 E - 10 -
12.07.2020 08:00:00 20,8 17,6 8 4 E 1021,0 10 -
12.07.2020 07:00:00 20,0 18,0 8 4 ENE - 10 -
12.07.2020 06:00:00 20,0 18,0 4 2 - - 10 -
12.07.2020 05:00:00 19,4 18,4 4 2 - 1019,4 10 0,0
12.07.2020 04:00:00 20,0 19,0 9 5 ENE - 10 -
12.07.2020 03:00:00 20,0 19,0 9 5 ENE - 10 -
12.07.2020 02:00:00 20,1 18,2 11 6 E 1019,0 10 -
12.07.2020 01:00:00 21,0 18,0 13 7 ENE - 10 -
12.07.2020 00:00:00 22,0 17,0 13 7 E - 10 -
11.07.2020 23:00:00 22,6 17,2 15 8 ESE 1017,3 10 0,0
11.07.2020 22:00:00 24,0 18,0 16 9 SE - 10 -
11.07.2020 21:00:00 26,0 18,0 15 8 SSE - 10 -
11.07.2020 20:00:00 27,5 17,7 9 5 E 1013,7 10 -
11.07.2020 19:00:00 29,0 17,0 2 1 - - 10 -
11.07.2020 18:00:00 27,0 18,0 5 3 ENE - 10 -
11.07.2020 17:00:00 25,3 17,6 13 7 ENE 1013,4 10 0,0
11.07.2020 16:00:00 23,0 17,0 9 5 N - 10 -
11.07.2020 15:00:00 22,0 16,0 29 16 N - 10 -
11.07.2020 14:00:00 28,6 19,3 11 6 S 1012,6 10 -
11.07.2020 13:00:00 29,0 20,0 5 3 SO - 10 -
11.07.2020 12:00:00 29,0 20,0 8 4 SE - 10 -
11.07.2020 11:00:00 28,7 20,6 5 3 OSO 1013,3 10 0,0
11.07.2020 10:00:00 27,0 20,0 5 3 - - 10 -
11.07.2020 09:00:00 25,0 16,0 9 5 OSO - 10 -
11.07.2020 08:00:00 24,3 19,4 4 2 - 1013,1 10 -
11.07.2020 07:00:00 23,0 20,0 4 2 O - 10 -
11.07.2020 06:00:00 22,0 20,0 8 4 O - 10 -
11.07.2020 05:00:00 22,3 20,0 5 3 OSO 1012,7 10 0,0
11.07.2020 04:00:00 23,0 20,0 8 4 OSO - 10 -
11.07.2020 03:00:00 24,0 19,0 5 3 O - 10 -
11.07.2020 02:00:00 24,1 20,0 4 2 - 1013,6 10 -
11.07.2020 01:00:00 25,0 19,0 11 6 NNO - 10 -
11.07.2020 00:00:00 26,0 20,0 9 5 O - 10 -
10.07.2020 23:00:00 26,9 19,3 5 3 NNO 1013,9 10 0,0
10.07.2020 22:00:00 28,0 20,0 5 3 O - 10 -
10.07.2020 21:00:00 29,0 18,0 8 4 SO - 10 -
10.07.2020 20:00:00 29,7 17,7 5 3 SO 1012,5 10 -
10.07.2020 19:00:00 32,0 16,0 5 3 SO - 10 -
10.07.2020 18:00:00 32,0 18,0 2 1 - - 10 -
10.07.2020 17:00:00 31,4 19,2 8 4 SO 1013,4 10 0,0
10.07.2020 16:00:00 31,0 20,0 11 6 SSE - 10 -
10.07.2020 15:00:00 31,0 20,0 9 5 S - 10 -
10.07.2020 14:00:00 30,4 17,9 4 2 - 1014,9 10 -
10.07.2020 13:00:00 29,0 18,0 8 4 - - 10 -
10.07.2020 12:00:00 28,0 18,0 5 3 - - 10 -
10.07.2020 11:00:00 28,0 19,5 4 2 - 1015,9 10 0,0
10.07.2020 10:00:00 26,0 19,0 8 4 S - 10 -
10.07.2020 09:00:00 25,0 18,0 9 5 SE - 10 -
10.07.2020 08:00:00 24,6 18,2 2 1 - 1015,8 10 -
10.07.2020 07:00:00 22,0 18,0 8 4 NNE - 10 -
10.07.2020 06:00:00 21,0 18,0 5 3 NE - 10 -
10.07.2020 05:00:00 20,9 18,0 4 2 - 1015,7 10 0,0
10.07.2020 04:00:00 21,0 19,0 4 2 - - 10 -
10.07.2020 03:00:00 22,0 18,0 4 2 - - 10 -
10.07.2020 02:00:00 21,5 19,4 2 1 - 1016,1 10 -
10.07.2020 01:00:00 22,0 20,0 0 0 N - 10 -
10.07.2020 00:00:00 23,0 20,0 2 1 - - 10 -
09.07.2020 23:00:00 23,3 19,3 4 2 SSE 1016,0 10 0,0
09.07.2020 22:00:00 25,0 20,0 4 2 - - 10 -
09.07.2020 21:00:00 27,0 18,0 2 1 - - 10 -
09.07.2020 20:00:00 30,0 17,5 4 2 - 1015,3 10 -
09.07.2020 19:00:00 30,0 18,0 4 2 - - 10 -
09.07.2020 18:00:00 30,0 17,0 9 5 O - 10 -
09.07.2020 17:00:00 30,3 15,4 9 5 - 1016,2 10 0,0
09.07.2020 16:00:00 29,0 16,0 5 3 - - 10 -
09.07.2020 15:00:00 29,0 16,0 5 3 - - 10 -
09.07.2020 14:00:00 28,8 15,5 8 4 SSE 1017,7 10 -
09.07.2020 13:00:00 - - - - - - - -
09.07.2020 12:00:00 28,0 15,0 8 4 S - 10 -
09.07.2020 11:00:00 25,8 15,5 5 3 E 1018,3 10 0,0
09.07.2020 10:00:00 24,0 16,0 8 4 E - 10 -
09.07.2020 09:00:00 23,0 16,0 9 5 SE - 10 -
09.07.2020 08:00:00 22,0 15,8 5 3 ENE 1017,9 10 -
09.07.2020 07:00:00 20,0 15,0 5 3 NE - 10 -
09.07.2020 06:00:00 19,0 15,0 5 3 ENE - 10 -
09.07.2020 05:00:00 19,5 15,6 5 3 NNE 1017,2 10 0,0
09.07.2020 04:00:00 19,0 17,0 4 2 NE - 10 -
09.07.2020 03:00:00 20,0 16,0 2 1 - - 10 -
09.07.2020 02:00:00 19,2 17,2 2 1 NE 1017,4 10 -
09.07.2020 01:00:00 20,0 18,0 4 2 SSE - 10 -
09.07.2020 00:00:00 19,0 17,0 2 1 S - 10 -
08.07.2020 23:00:00 21,7 15,9 4 2 S 1016,8 10 0,0
08.07.2020 22:00:00 22,0 18,0 4 2 - - 10 -
08.07.2020 21:00:00 25,0 15,0 5 3 S - 10 -
08.07.2020 20:00:00 26,5 14,6 5 3 S 1015,8 10 -
08.07.2020 19:00:00 28,0 14,0 4 2 - - 10 -
08.07.2020 18:00:00 29,0 14,0 4 2 - - 10 -
08.07.2020 17:00:00 27,7 12,6 8 4 E 1016,8 10 0,0
08.07.2020 16:00:00 27,0 14,0 5 3 - - 10 -
08.07.2020 15:00:00 27,0 12,0 5 3 - - 10 -
08.07.2020 14:00:00 26,7 11,6 5 3 - 1018,1 10 -

tt = Temperatura
td = dewpoint
ff = velocità del vento
dd = direzione del vento
ppp = reduced air pressure
vv = visibility
rr = precipitazioni

Stazioni seguenti

WeatherPro
AMSI
MeteoEarth